Location: Most
(50.5133°N, 13.6207°E)
Time: 07:46:15
(UTC+02:00)

ISS - Pass Details

Date: 07 June 2018
Orbit: 403 x 408 km, 51.6° (Epoch: 25 September)

Event Time Altitude Azimuth Distance (km) Brightness Sun altitude
Rises 21:53:26 0° 280° (W) 2,331 1.0 -5.4°
Reaches altitude 10° 21:56:24 10° 251° (WSW) 1,463 -0.7 -5.8°
Maximum altitude 21:57:57 13° 222° (SW) 1,300 -1.3 -5.9°
Drops below altitude 10° 21:59:29 10° 194° (SSW) 1,455 -1.3 -6.1°
Enters shadow 22:01:16 - 173° (S) 1,918 -0.9 -6.3°
